sat.trackr.live / text

‹ back to catalog

NANOSATC-BR1

NORAD 40024 · 2014-033Q

PAYLOAD ACTIVE UNKNOWN

§ Identity

Operator
Country
BRAZ
Launch date
2014-06-19
Launch site
DLS
Launch vehicle
Mass (kg)
RCS (m²)
0.04

Purposes: tech_demo

External: N2YO · Heavens-Above · Gunter

§ Orbital elements

Epoch: 2026-09-03T02:16:38.939232Z

Period
93.89 min
Inclination
98.0671°
Eccentricity
0.0001788
Mean motion
15.33740019 rev/d
Perigee alt
463.4 km
Apogee alt
465.9 km
Semi-major
6,842.8 km
B*
3.2475e-4
RAAN
285.5090°
Arg perigee
265.9656°
Mean anomaly
94.1380°
Rev number
66,591

§ Raw data

NANOSATC-BR11 40024U 14033Q   26246.09489513  .00010509  00000+0  32475-3 0  99982 40024  98.0671 285.5090 0001788 265.9656  94.1380 15.33740019665910

JSON: /api/v1/satellites/40024 · /tle

For live sub-satellite position, see the globe view (requires WebGL).

§ Visibility from observer

Set your observer location to see the next 7 days of passes ≥ 10°. The values pass through the URL so the page stays shareable.

No JS? Fill the form by hand. The geolocation button needs JavaScript.

§ Radio — SatNOGS DB

ModeDescriptionDownlinkUplink
BPSK Mode V - BPSK1k2 - TLM 145.865 MHz

1 transmitter · refreshed weekly from db.satnogs.org